Weather Roundup
Issued by NWS

Home | Current Version | Previous Version | Text Only | Print | Product List | Glossary On
Versions: 1 2 3 4 5 6 7 8 9 10 11 12 13 14 15 16 17 18 19 20 21 22 23 24 25 26 27 28 29 30 31 32 33 34 35 36 37 38 39 40 41 42 43 44 45 46 47 48 49 50
000
NZUS93 KARX 271810
HRRWXR

CURRENT HOURLY OBSERVATIONS ACROSS
MUCH OF THE UPPER MISSISSIPPI VALLEY
NATIONAL WEATHER SERVICE LA CROSSE WI
100 PM CDT MON JUL 27 2015


...SOUTHEAST MINNESOTA...


CITY           SKY/WX    TMP DP  RH WIND       PRES   REMARKS
ROCHESTER      CLOUDY    80  72  76 SE8       30.01S
ROCHESTER/MAYO MOCLDY    80  70  73 SE9       30.00F
WINONA         PTSUNNY   82  68  61 SE9       30.00S
AUSTIN         CLOUDY    81  72  74 SE6       29.99F
ALBERT LEA     CLOUDY    79  73  83 S14       29.98F
DODGE CENTER   CLOUDY    79  72  78 S8        30.01R
PRESTON        PTSUNNY   81  69  66 SE9       30.02F
OWATONNA       CLOUDY    79  72  78 SE13      29.98S
FARIBAULT      CLOUDY    81  73  78 SE14      29.97S
$$

...ELSEWHERE IN MINNESOTA...


CITY           SKY/WX    TMP DP  RH WIND       PRES   REMARKS
MINNEAPOLIS    PTSUNNY   84  71  65 SE15G21   29.94F
INTNL FALLS    SUNNY     85  64  49 SE13G20   29.94F
DULUTH         MOSUNNY   82  65  56 E10G20    29.99F
RED WING       CLOUDY    82  70  65 SE9       29.97F
REDWOOD FALLS  CLOUDY    79  74  84 SE10      29.89F
MANKATO        CLOUDY    79  72  78 SE16      29.94F
WORTHINGTON    PTSUNNY   81  68  65 SE13      29.90F
FAIRMONT       CLOUDY    79  70  73 S15       29.94R
$$

...SOUTHWEST WISCONSIN...


CITY           SKY/WX    TMP DP  RH WIND       PRES   REMARKS
LA CROSSE      MOSUNNY   86  66  51 SE12      30.00S
PRAIRIE DU CHI PTSUNNY   84  67  56 SE7       30.00S
BOSCOBEL       PTSUNNY   86  69  56 S6        30.01R HX  90
LONE ROCK      MOSUNNY   84  67  56 SE5       30.02S
PLATTEVILLE    MOSUNNY   84  72  66 S7        30.03R
FORT MC COY    MOSUNNY   85  60  42 E8        30.03S
CAMP DOUGLAS   PTSUNNY   84  70  61 S9        30.03S
VIROQUA        FAIR      83  69  62 E9        30.04S
WIS DELLS      MOSUNNY   86  61  42 SE6       30.04R
$$

...ELSEWHERE IN WISCONSIN...


CITY           SKY/WX    TMP DP  RH WIND       PRES   REMARKS
MILWAUKEE      PTSUNNY   83  58  42 E9        30.03F
MADISON        PTSUNNY   83  67  58 SE9       30.02F
GREEN BAY      SUNNY     86  64  47 S10       30.04F
EAU CLAIRE     MOSUNNY   84  66  54 SE14      30.00S
BLACK RVR FLS  FAIR      86  60  41 E3        30.01S
MEDFORD        SUNNY     78  62  56 SE6       30.06S
WAUSAU         SUNNY     85  60  42 SE10      30.04S
WIS RAPIDS     MOSUNNY   84  60  44 S8        30.05S
MARSHFIELD     MOSUNNY   81  62  52 S6        30.05F
RICE LAKE      SUNNY     81  66  60 SE10      30.02F
$$

...NORTHEAST IOWA...


CITY           SKY/WX    TMP DP  RH WIND       PRES   REMARKS
DECORAH        PTSUNNY   81  72  74 VRB7G13   30.02
MASON CITY     CLOUDY    75  73  93 SE14      30.00F
CHARLES CITY   CLOUDY    81  75  83 SE8       30.01F
OELWEIN        PTSUNNY   81  72  74 SE6       30.02S
$$

...ELSEWHERE IN IOWA...


CITY           SKY/WX    TMP DP  RH WIND       PRES   REMARKS
DES MOINES     TSTM      72  68  87 NW20G31   30.00R VSB 1/2
IOWA CITY      PTSUNNY   84  73  69 SE7       29.99R HX  90
FORT DODGE     CLOUDY    70  68  94 S9        30.02R
$$

...NORTHERN ILLINOIS...


CITY           SKY/WX    TMP DP  RH WIND       PRES   REMARKS
CHICAGO-OHARE  MOSUNNY   86  60  41 E15       30.00F
CHICAGO-MIDWAY MOSUNNY   88  61  40 E13       30.00F
MOLINE         MOSUNNY   84  71  65 E10       29.98S
ROCKFORD       PTSUNNY   87  69  54 E12       30.01F HX  91
PEORIA         CLOUDY    82  72  71 NE7       29.99R
$$

NOTE: "FAIR" INDICATES FEW OR NO CLOUDS BELOW 12,000 FEET WITH NO
SIGNIFICANT WEATHER AND/OR OBSTRUCTIONS TO VISIBILITY. WIND
SPEEDS ARE IN MILES-PER-HOUR.



USA.gov is the U.S. government's official web portal to all federal, state and local government web resources and services.